Content
SEND FEEDBACK

Daily
Averages
Monthly
Summary
Canada

MONTREAL, QUEBEC


Home > North America > Canada > Quebec
Elevation: 118 feet     Latitude: 45 28N     Longitude: 073 45W

WEATHER
 
SELECT A DAY
Number of Records: 197,862;   Date Range: 1/1/95 - 7/9/14
 
SHARE

PRINT THIS DATA

[ ← Previous Day ]
WEATHER ALMANAC - NOVEMBER 1, 2013
[ Next Day → ]
[ °C ]   °F
Weather ElementAverageHighLow
Temperature57.8 °F64.4 °F (10:42 am)50 °F (11:00 pm)
Dewpoint50.1 °F57.2 °F (5:00 am)39.2 °F (11:00 pm)
Humidity76.3 %100 % (5:00 am)45 % (2:00 pm)
Barometer29.27 in29.59 in (11:00 pm)29.13 in (10:42 am)
Wind Speed24.4 mph44.9 mph (5:00 pm)
Wind Gust62.1 mph (1:00 pm)
Weather ElementAverage
Visibility13.1 mi
Wind DirectionSSW (204.7 °)

Weather ElementTotal
Precipitation---
Heating Degree Days7.8 (Base 65)
Growing Degree Days7.2 (Base 50)
Averaged from 30 records on November 1, 2013
WEATHER CONDITIONS BREAKOUT
WIND DIRECTION BREAKOUT
WEATHER BY HOUR - NOVEMBER 1, 2013
[ °C ]   °F
Local TimeTemperatureDewpointHumidityBarometerVisibilityWind DirectionWind SpeedGust SpeedPrecipitationEventsConditions
1:00 AM55.4 °F53.6 °F94 %29.44 in6.0 miSSE (150°)16.1 mphRainLight Rain
2:00 AM56.0 °F54.0 °F92 %29.39 in5.0 miSSE (150°)16.1 mphRainLight Rain
2:00 AM55.4 °F53.6 °F94 %29.39 in5.0 miSSE (150°)17.3 mphRainLight Rain
3:00 AM57.2 °F55.4 °F94 %29.35 in6.0 miSSE (150°)15.0 mphRainLight Rain
4:00 AM57.2 °F55.4 °F94 %29.29 in5.0 miSSE (150°)13.8 mphRainLight Rain
5:00 AM57.2 °F57.2 °F100 %29.25 in5.0 miSSE (160°)15.0 mphRainLight Rain
6:00 AM57.2 °F57.2 °F100 %29.22 in5.0 miSSE (160°)17.3 mphRainLight Rain
7:00 AM59.0 °F57.2 °F94 %29.18 in8.0 miSSE (150°)17.3 mphRainLight Rain
8:00 AM58.0 °F57.0 °F94 %29.16 in15.0 miSSE (160°)13.8 mphRainLight Rain
8:00 AM59.0 °F57.2 °F94 %29.16 in15.0 miSSE (160°)13.8 mphOvercast
9:00 AM60.8 °F57.2 °F88 %29.16 in30.0 miSSE (160°)13.8 mphOvercast
9:36 AM60.8 °F57.2 °F88 %29.14 in15.0 miSSE (160°)16.1 mphRainLight Rain Showers
10:00 AM62.6 °F57.2 °F82 %29.14 in15.0 miSouth (180°)15.0 mphMostly Cloudy
10:42 AM64.4 °F53.6 °F68 %29.13 in8.0 miSW (230°)21.9 mph32.2 mphRainLight Rain Showers
11:00 AM59.0 °F55.4 °F88 %29.16 in10.0 miSW (230°)34.5 mph47.2 mphRainLight Rain Showers
11:07 AM60.8 °F55.4 °F82 %29.15 in15.0 miSW (220°)31.1 mph46.0 mphMostly Cloudy
12:00 PM64.4 °F51.8 °F64 %29.13 in15.0 miSW (220°)32.2 mph43.7 mphPartly Cloudy
1:00 PM62.6 °F46.4 °F55 %29.16 in30.0 miSW (230°)42.6 mph62.1 mphPartly Cloudy
2:00 PM60.0 °F44.0 °F45 %29.18 in15.0 miSW (230°)39.1 mphPartly Cloudy
2:00 PM60.8 °F44.6 °F55 %29.17 in15.0 miSW (220°)40.3 mph55.2 mphOvercast
3:00 PM59.0 °F44.6 °F59 %29.19 in15.0 miSW (230°)35.7 mph56.4 mphOvercast
4:00 PM57.2 °F44.6 °F63 %29.21 in15.0 miSW (230°)39.1 mph56.4 mphMostly Cloudy
5:00 PM57.2 °F42.8 °F59 %29.23 in15.0 miSW (230°)44.9 mph59.8 mphOvercast
6:00 PM55.4 °F44.6 °F67 %29.27 in15.0 miSW (230°)42.6 mph57.5 mphMostly Cloudy
7:00 PM55.4 °F44.6 °F67 %29.35 in15.0 miWSW (250°)33.4 mph51.8 mphScattered Clouds
8:00 PM53.0 °F40.0 °F52 %29.44 in15.0 miWest (260°)23.0 mphPartly Cloudy
8:00 PM53.6 °F41.0 °F62 %29.44 in15.0 miWest (260°)20.7 mph33.4 mphScattered Clouds
9:00 PM53.6 °F41.0 °F62 %29.48 in15.0 miWest (270°)23.0 mph33.4 mphMostly Cloudy
10:00 PM51.8 °F41.0 °F67 %29.57 in15.0 miWest (280°)12.7 mph25.3 mphOvercast
11:00 PM50.0 °F39.2 °F66 %29.59 in15.0 miWest (280°)13.8 mphMostly Cloudy
Hourly data recorded from CYUL, located miles away from Montreal, Quebec







STORIES FROM OUR PARTNERS